This is the latest recevied weather packets stored in our database for station/object KC1HBM. If no packets are shown the sender has not sent any weather packets the latest 10 day(s).
| Time | Temp. | Humidity | Pressure | Rain* | Wind** | Luminosity | Snow |
|---|---|---|---|---|---|---|---|
| 1777727686 | 7.22° C | 92% | 1011.2 hPa | 1.27 mm | - | 26 W/m² | - |
| 1777727383 | 7.22° C | 91% | 1011.3 hPa | 1.78 mm | - | 22 W/m² | - |
| 1777727080 | 7.22° C | 91% | 1011.3 hPa | 1.78 mm | - | 15 W/m² | - |
| 1777726778 | 7.22° C | 91% | 1011 hPa | 0 mm | - | 22 W/m² | - |
| 1777726475 | 7.22° C | 90% | 1011.2 hPa | 0 mm | - | 20 W/m² | - |
| 1777726171 | 7.22° C | 88% | 1010.9 hPa | 0 mm | - | 20 W/m² | - |
| 1777725868 | 7.22° C | 87% | 1010.7 hPa | 0 mm | - | 22 W/m² | - |
| 1777725566 | 7.78° C | 88% | 1010.5 hPa | 0 mm | - | 21 W/m² | - |
| 1777725263 | 7.22° C | 88% | 1010.6 hPa | 0 mm | - | 17 W/m² | - |
| 1777724960 | 7.22° C | 89% | 1010.4 hPa | 0 mm | - | 30 W/m² | - |
| 1777724656 | 7.22° C | 89% | 1010.6 hPa | 0 mm | - | 27 W/m² | - |
| 1777724355 | 7.22° C | 90% | 1010.7 hPa | 0 mm | - | 18 W/m² | - |
| 1777724051 | 7.22° C | 91% | 1010.6 hPa | 0 mm | - | 10 W/m² | - |
| 1777723749 | 7.22° C | 91% | 1010.8 hPa | 1.27 mm | - | 11 W/m² | - |
| 1777723445 | 7.22° C | 92% | 1010.8 hPa | 1.27 mm | - | 10 W/m² | - |
| 1777723142 | 7.22° C | 92% | 1011 hPa | 0 mm | - | 12 W/m² | - |
| 1777722839 | 7.22° C | 90% | 1011.1 hPa | 1.78 mm | - | 10 W/m² | - |
| 1777722535 | 7.22° C | 89% | 1011.2 hPa | 1.78 mm | - | 5 W/m² | - |
| 1777722232 | 7.78° C | 87% | 1011.5 hPa | 0 mm | - | 4 W/m² | - |
| 1777721929 | 7.78° C | 87% | 1011.6 hPa | 0 mm | - | 3 W/m² | - |
| 1777721626 | 7.78° C | 85% | 1011.4 hPa | 0 mm | - | 6 W/m² | - |
| 1777721325 | 7.78° C | 83% | 1011.4 hPa | 0 mm | - | 6 W/m² | - |
| 1777721022 | 7.78° C | 82% | 1011.4 hPa | 0 mm | - | 6 W/m² | - |
| 1777720720 | 7.78° C | 83% | 1011.2 hPa | 0 mm | - | 6 W/m² | - |
| 1777720417 | 7.78° C | 82% | 1011.1 hPa | 0 mm | - | 6 W/m² | - |
* Rain latest hour (hover to see other rain measurements)
** Current wind speed in m/s (hover to see current wind gust speed)